Flag for U.S.A. Weather past 2 weeks in Portsmouth, Virginia, U.S.A.

Now
86 °F

Partly sunny.


Feels Like: 84 °F
Forecast: 58 / 85 °F
Wind: 7 mph from North

Location: Norfolk Naval Air Station

Current Time: May 24, 2015 at 5:48:40 PM

Latest Report: May 24, 2015 at 4:59 PM


Visibility: 10 mi

Pressure: 30.32 "Hg

Humidity: 35%

Dew point: 55 °F

Location of PortsmouthLocation

Historic Weather in Portsmouth — Graph

°F

Portsmouth temperature yesterday

Maximum temperature yesterday: 73 °F (at 1:59 PM)
Minimum temperature yesterday: 63 °F (at 3:59 AM)
Average temperature yesterday: 68 °F

Past Weeks' High & Low Weather Summary

 TemperatureHumidityPressure
High94 °F (May 18, 3:59 PM)84% (May 10, 1:59 AM)30.47 "Hg (May 10, 1:59 AM)
Low56 °F (May 15, 2:59 AM)33% (May 22, 2:59 PM)29.80 "Hg (May 21, 3:59 PM)
Average74 °F58%30.15 "Hg
* Reported May 9 3:59 PM — May 24 3:59 PM, Portsmouth, Weather by CustomWeather, © 2015

Note: Actual official high and low records may vary slightly from our data, if they occured in-between our weather recording intervals... More about our weather records

Advertising

Portsmouth weather history for previous 24 hours

 ConditionsComfort  
Time TempWeatherWind HumidityBarometerVisibility
3:59 PM
Sun, May 24
82 °FBroken clouds.9 mph40%30.34 "Hg10 mi
2:59 PM84 °FPartly sunny.7 mph40%30.36 "Hg10 mi
1:59 PM84 °FScattered clouds.6 mph38%30.38 "Hg10 mi
12:59 PM82 °FScattered clouds.7 mph43%30.40 "Hg10 mi
11:59 AM80 °FScattered clouds.7 mph42%30.41 "Hg10 mi
10:59 AM78 °FScattered clouds.5 mph42%30.42 "Hg10 mi
9:59 AM76 °FScattered clouds.6 mph40%30.44 "Hg10 mi
8:59 AM74 °FScattered clouds.3 mph36%30.44 "Hg10 mi
7:59 AM69 °FPartly sunny.5 mph47%30.44 "Hg10 mi
6:59 AM65 °FPartly sunny.5 mph68%30.43 "Hg10 mi
5:59 AM62 °FPassing clouds.7 mph75%30.42 "Hg10 mi
4:59 AM60 °FPassing clouds.3 mph78%30.41 "Hg10 mi
3:59 AM62 °FPassing clouds.No wind73%30.41 "Hg10 mi
2:59 AM63 °FPassing clouds.5 mph68%30.41 "Hg10 mi
1:59 AM63 °FPassing clouds.No wind68%30.41 "Hg10 mi
12:59 AM63 °FClear.5 mph60%30.42 "Hg10 mi
11:59 PM
Sat, May 23
63 °FClear.5 mph56%30.43 "Hg10 mi
10:59 PM64 °FPassing clouds.6 mph52%30.44 "Hg10 mi
9:59 PM65 °FPassing clouds.5 mph54%30.42 "Hg10 mi
8:59 PM66 °FPassing clouds.8 mph54%30.41 "Hg10 mi
7:59 PM67 °FPassing clouds.7 mph49%30.41 "Hg10 mi
6:59 PM70 °FPassing clouds.9 mph39%30.41 "Hg10 mi
5:59 PM71 °FPassing clouds.9 mph39%30.41 "Hg10 mi
Weather by CustomWeather, © 2015

See weather overviewHow to use our weather pages